Location: Bidwell Hollow
(37.7387°N, 90.1707°W)
Time: 02:33:37
(UTC+00:00)

Tiros 1 despin weight - Pass Details

Date: 14 May 2026
Orbit: 554 x 591 km, 48.2° (Epoch: 6 June)

Event Time Altitude Azimuth Distance (km) Brightness Sun altitude
Rises 18:44:54 0° 288° (WNW) 2,727 ? 68.4°
Reaches altitude 10° 18:47:48 10° 267° (W) 1,831 ? 68.0°
Maximum altitude 18:50:26 16° 228° (SW) 1,463 ? 67.7°
Drops below altitude 10° 18:53:05 10° 188° (S) 1,831 ? 67.4°
Sets 18:56:00 0° 167° (SSE) 2,728 ? 67.1°
